Regional Weather Roundup
Issued by NWS Portland, ME

Current Version | Previous Version | Text Only | Print | Product List | Glossary Off
Versions: 1 2 3 4 5 6 7 8 9 10 11 12 13 14 15 16 17 18 19 20 21 22 23 24 25 26 27 28 29 30 31 32 33 34 35 36 37 38 39 40 41 42 43 44 45 46 47 48 49 50
000 ASUS41 KGYX 161305 RWRGYX WEATHER ROUNDUP FOR MAINE AND NEW HAMPSHIRE NATIONAL WEATHER SERVICE GRAY ME 800 AM EST TUE JAN 16 2018 MEZ002-005-006-010-012-015-018-020-021-024-026-027-029-161400- MAINE CITY SKY/WX TMP DP RH WIND PRES REMARKS PORTLAND FAIR 15 9 76 VRB7 30.53S SANFORD FAIR 12 10 92 CALM 30.52F BAR HARBOR CLOUDY 14 8 77 N5 30.52R WISCASSET CLOUDY 15 9 76 CALM 30.55S FRYEBURG FAIR 14 8 77 CALM 30.50S LEWISTONAUBURN MOCLDY 14 8 77 CALM 30.52S AUGUSTA FAIR 12 6 77 CALM 30.51S WATERVILLE CLOUDY 12 6 77 CALM 30.46F BANGOR MOCLDY 12 7 80 N6 30.51S GREENVILLE N/A N/A N/A N/A CALM 30.36F MILLINOCKET CLOUDY 10 6 84 NW3 30.50S HOULTON CLOUDY 6 1 80 N7 30.46F HAZE PRESQUE ISLE FLURRIES 3 -2 79 N5 30.50F FRENCHVILLE CLOUDY -6 -9 86 N7 30.44F CARIBOU CLOUDY 2 -4 76 CALM 30.47F $$ NHZ002-005-008-009-011-012-014-161400- NEW HAMPSHIRE CITY SKY/WX TMP DP RH WIND PRES REMARKS PORTSMOUTH PTCLDY 17 10 76 N3 30.51F ROCHESTER FAIR 15 11 83 CALM 30.50S NASHUA FAIR 16 11 80 CALM 30.51F MANCHESTER FAIR 17 9 70 CALM 30.49F CONCORD CLOUDY 16 10 77 CALM 30.50S PLYMOUTH CLOUDY 10 7 89 CALM 30.50R FOG BERLIN LGT SNOW 4 1 88 CALM 30.41R FOG WHITEFIELD LGT SNOW 7 3 84 CALM 30.41R FOG JAFFREY CLOUDY 17 12 80 CALM 30.43R KEENE LGT SNOW 17 11 77 CALM 30.49R LEBANON CLOUDY 16 11 80 CALM 30.46S MT WASHINGTON SNOWSHWR 5 5 100 W40 N/A VSB 1/8 WCI -22 $$ VTZ005-007-008-161400- VERMONT CITY SKY/WX TMP DP RH WIND PRES REMARKS ST JOHNSBURY N/A 11 9 92 MISG 30.43S MONTPELIER LGT SNOW 12 11 95 CALM 30.42S FOG BURLINGTON LGT SNOW 18 13 80 S5 30.43S $$ MAZ007-012-024-CTZ003-RIZ002-NYZ038-NYZ072-161400- SOUTHERN NEW ENGLAND AND NY CITY SKY/WX TMP DP RH WIND PRES REMARKS BOSTON FAIR 22 16 78 NE6 30.52F WORCESTER FAIR 18 7 62 CALM 30.44S NANTUCKET FAIR 30 27 88 N8 30.51R PROVIDENCE MOCLDY 22 15 75 NE3 30.52S HARTFORD CLOUDY 21 10 62 CALM 30.52R ALBANY CLOUDY 18 12 77 CALM 30.48R NEW YORK CITY CLOUDY 27 22 81 NE8 30.51S $$ ANZ081-ANZ082-ANZ150-NHZ014-MEZ023>029-161400- COASTAL MARINE OBSERVATIONS STATION/POSITION TIME TEMP WIND PRES WAVE AIR SEA DIR/SP/G HT/PER (UTC) (F) (DEG/KT/KT) (MB) (FT/S) MOUNT DESERT ROC 1300 21 320/ 9/ 11 1033.2R MATINICUS ROCK 1200 19 10/ 11/ 13 1032.7R ISLE OF SHOALS 1200 20 340/ 6/ 8 1033.9R JEFFREYS LEDGE 1236 44 N/A 9/11 GEORGES BANK BUO 1150 42 53 1023.0 13/11 $$ .............KEY.............. WCI - WIND CHILL TC - TEMPERATURE IN CELSIUS VSB - VISIBILITY IN MILES HX - HEAT INDEX FAIR- INDICATES FEW OR NO CLOUDS BELOW 12,000 FT, WITH NO SIGNIFICANT WEATHER AND/OR OBSTRUCTIONS TO VISIBILITY.

USA.gov is the U.S. government's official web portal to all federal, state and local government web resources and services.